ONEWEB-0095 (45436 NORAD) Tracking and Keplerian Element Data

This shows tracking and keplerian element data for the satellite.

Feedback or suggestion? Click here.




ElementValue
Catalog45436
NameONEWEB-0095
Epoch Orbit1565
Epoch Day185.58334491
Epoch Year2020
RAAN104.9243
Inclination87.5724
Eccentricity0.0020281
Argument of Perigee282.374
Mean Anonmoly342.9242
Mean Motion14.90316541
Decay Rate0.00037683
L11 45436U 20020N 20185.58334491 .00037683 00000-0 38454-2 0 9992
L22 45436 87.5724 104.9243 0020281 282.3740 342.9242 14.90316541 15656

Live tracking and technical data element details for ONEWEB-0095 (NORAD 45436). ONEWEB-0095 can be tracked NOW for your location showing map with azimuth and elevation plus other details from your city location.

Track the satellite on the map from your city or location and see movement details for azimuth, elevation, latitude, longitude, range, height, and movement on the map or in text.







IsCatalogInMostPopularTable: catalog: 45436, numindb: 20
Update: records affected: 1



GetName: 45436 ONEWEB-0095

Hit Count: updated at: Fri, 03 Jul 2020 16:28:23 GMT